This is the latest recevied weather packets stored in our database for station/object EA1CUE-WX. If no packets are shown the sender has not sent any weather packets the latest 10 day(s).
| Time | Temp. | Humidity | Pressure | Rain* | Wind** | Luminosity | Snow |
|---|---|---|---|---|---|---|---|
| 1778070226 | 14.44° C | 46% | 1012.5 hPa | 0 mm | - | - | - |
| 1778069926 | 14.44° C | 46% | 1012.6 hPa | 0 mm | - | - | - |
| 1778069626 | 15° C | 44% | 1012.6 hPa | 0 mm | - | - | - |
| 1778069326 | 14.44° C | 44% | 1012.6 hPa | 0 mm | - | - | - |
| 1778069026 | 14.44° C | 45% | 1012.7 hPa | 0 mm | - | - | - |
| 1778068726 | 13.89° C | 46% | 1012.8 hPa | 0 mm | - | - | - |
| 1778068426 | 14.44° C | 46% | 1012.7 hPa | 0 mm | - | - | - |
| 1778068126 | 14.44° C | 43% | 1012.7 hPa | 0 mm | - | - | - |
| 1778067826 | 14.44° C | 45% | 1012.8 hPa | 0 mm | - | - | - |
| 1778067526 | 14.44° C | 45% | 1012.9 hPa | 0 mm | - | - | - |
| 1778067226 | 14.44° C | 44% | 1012.9 hPa | 0 mm | - | - | - |
| 1778066926 | 13.89° C | 43% | 1012.9 hPa | 0 mm | - | - | - |
| 1778066626 | 13.33° C | 44% | 1012.9 hPa | 0 mm | - | - | - |
| 1778066326 | 12.78° C | 46% | 1013 hPa | 0 mm | - | - | - |
| 1778066026 | 13.33° C | 44% | 1013.1 hPa | 0 mm | - | - | - |
| 1778065726 | 12.78° C | 41% | 1013.1 hPa | 0 mm | - | - | - |
| 1778065426 | 12.22° C | 42% | 1013.1 hPa | 0 mm | - | - | - |
| 1778065126 | 12.22° C | 46% | 1013.1 hPa | 0 mm | - | - | - |
| 1778064826 | 12.22° C | 43% | 1013.1 hPa | 0 mm | - | - | - |
| 1778064526 | 11.67° C | 45% | 1013.1 hPa | 0 mm | - | - | - |
| 1778064226 | 11.67° C | 43% | 1013.1 hPa | 0 mm | - | - | - |
| 1778063926 | 11.11° C | 43% | 1013.2 hPa | 0 mm | - | - | - |
| 1778063626 | 11.67° C | 40% | 1013.3 hPa | 0 mm | - | - | - |
| 1778063326 | 11.67° C | 40% | 1013.2 hPa | 0 mm | - | - | - |
| 1778063026 | 11.67° C | 36% | 1013.2 hPa | 0 mm | - | - | - |
* Rain latest hour (hover to see other rain measurements)
** Current wind speed in m/s (hover to see current wind gust speed)